Change the Weather History Date:

Tuesday, January 1, 2008

  Actual Average Record
Temperature  
Mean Temperature 24 °F 20 °F  
Max Temperature 30 °F 28 °F 56 °F (1966)
Min Temperature 18 °F 12 °F -17 °F (1970)
Degree Days  
Heating Degree Days 41 45  
Month to date heating degree days 41 45  
Since 1 July heating degree days 2671 2804  
Cooling Degree Days 0 0  
Month to date cooling degree days 0 0  
Year to date cooling degree days 0 0  
Moisture  
Dew Point 25 °F    
Average Humidity 82    
Maximum Humidity 92    
Minimum Humidity 72    
Precipitation  
Precipitation 0.14 in 0.07 in 1.46 in (1945)
Month to date precipitation 0.14 0.07  
Year to date precipitation 0.14 0.07  
Snow  
Snow 2.00 in 0.70 in 14.50 in (1961)
Month to date snowfall 2.0 0.7  
Since 1 July snowfall 51.4 24.0  
Snow Depth 16.00 in    
Sea Level Pressure  
Sea Level Pressure 29.76 in    
Wind  
Wind Speed 5 mph (ESE)    
Max Wind Speed 21 mph    
Max Gust Speed 29 mph    
Visibility 4 miles    
Events Fog , Snow    
T = Trace of Precipitation, MM = Missing Value Source: NWS Daily Summary

Daily Weather History Graph

Daily Weather History Graph

Search for Another Location

Airport or City:

Trip Planner

Search our weather history database for the weather conditions in past years. The results will help you decide how hot, cold, wet, or windy it might be!

Date:

Astronomy

Jan. 01, 2008 Rise Set
Actual Time 7:29 AM EST 4:23 PM EST
Civil Twilight 6:55 AM EST 4:56 PM EST
Nautical Twilight 6:19 AM EST 5:33 PM EST
Astronomical Twilight 5:43 AM EST 6:08 PM EST
Moon 1:07 AM EST 11:41 AM EST
Length of Visible Light 10h 00m
Length of Day
8h 54m
Last Quarter, 37% of the Moon is Illuminated
Jan 1
Last Quarter
Jan 8
New
Jan 15
First Quarter
Jan 22
Full
Jan 30
Last Quarter

Hourly Weather History & Observations

Time (EST) Temp. Windchill Dew Point Humidity Pressure Visibility Wind Dir Wind Speed Gust Speed Precip Events Conditions
12:54 AM 25.0 °F 18.1 °F 21.9 °F 88% 30.11 in 10.0 mi South 5.8 mph - N/A   Overcast
1:54 AM 21.0 °F 16.2 °F 18.0 °F 88% 30.11 in 8.0 mi South 3.5 mph - N/A   Clear
2:54 AM 19.0 °F 12.3 °F 18.0 °F 96% 30.12 in 7.0 mi South 4.6 mph - N/A   Clear
3:54 AM 19.9 °F - 17.1 °F 89% 30.10 in 8.0 mi Calm Calm - N/A   Clear
4:54 AM 21.9 °F - 19.0 °F 89% 30.10 in 10.0 mi Calm Calm - N/A   Overcast
5:54 AM 23.0 °F - 19.9 °F 88% 30.09 in 10.0 mi Calm Calm - N/A   Overcast
6:54 AM 25.0 °F 20.7 °F 21.0 °F 85% 30.04 in 10.0 mi South 3.5 mph - N/A   Mostly Cloudy
7:54 AM 27.0 °F 19.5 °F 21.0 °F 78% 30.00 in 8.0 mi ESE 6.9 mph - 0.00 in Snow Light Snow
8:54 AM 27.0 °F 23.0 °F 21.0 °F 78% 29.97 in 10.0 mi ENE 3.5 mph - 0.00 in   Overcast
9:54 AM 28.0 °F 17.0 °F 21.0 °F 75% 29.94 in 6.0 mi ESE 13.8 mph - 0.00 in Snow Light Snow
9:59 AM 28.4 °F 18.5 °F 21.2 °F 74% 29.93 in 1.0 mi ESE 11.5 mph - 0.00 in Snow Light Snow
10:09 AM 26.6 °F 16.8 °F 23.0 °F 86% 29.92 in 0.5 mi ESE 10.4 mph - 0.00 in Fog , Snow Snow
10:54 AM 28.0 °F 18.1 °F 24.1 °F 85% 29.89 in 0.8 mi SE 11.5 mph - 0.00 in Snow Light Snow
11:04 AM 28.4 °F 18.5 °F 24.8 °F 86% 29.86 in 1.0 mi SE 11.5 mph - 0.00 in Snow Light Snow
11:23 AM 28.4 °F 18.5 °F 23.0 °F 80% 29.84 in 6.0 mi ESE 11.5 mph - 0.00 in Snow Light Snow
11:54 AM 30.0 °F 19.5 °F 21.9 °F 72% 29.83 in 10.0 mi ESE 13.8 mph - 0.00 in   Overcast
12:01 PM 28.4 °F 18.5 °F 21.2 °F 74% 29.80 in 10.0 mi ESE 11.5 mph - N/A   Overcast
12:54 PM 30.0 °F 21.1 °F 23.0 °F 75% 29.79 in 10.0 mi SE 10.4 mph - N/A   Overcast
1:04 PM 30.2 °F 19.8 °F 23.0 °F 75% 29.77 in 2.0 mi SSE 13.8 mph - 0.00 in Snow Light Snow
1:39 PM 28.4 °F 22.2 °F 23.0 °F 80% 29.75 in 3.0 mi SE 5.8 mph - 0.00 in Snow Light Snow
1:51 PM 28.4 °F 24.6 °F 24.8 °F 86% 29.75 in 1.0 mi SE 3.5 mph - 0.00 in Snow Light Snow
1:54 PM 28.9 °F 25.2 °F 24.1 °F 82% 29.76 in 1.0 mi SE 3.5 mph - 0.00 in Snow Light Snow
1:58 PM 28.4 °F - 24.8 °F 86% 29.74 in 0.8 mi Calm Calm - 0.01 in Snow Light Snow
2:14 PM 30.2 °F 25.4 °F 26.6 °F 86% 29.74 in 1.0 mi South 4.6 mph - 0.01 in Snow Light Snow
2:34 PM 30.2 °F 25.4 °F 26.6 °F 86% 29.73 in 1.0 mi South 4.6 mph - 0.01 in Snow Light Snow
2:54 PM 30.0 °F - 26.1 °F 85% 29.74 in 1.0 mi Calm Calm - 0.01 in Snow Light Snow
3:23 PM 30.2 °F - 26.6 °F 86% 29.71 in 2.0 mi Calm Calm - 0.01 in Snow Light Snow
3:34 PM 30.2 °F 26.7 °F 26.6 °F 86% 29.71 in 7.0 mi North 3.5 mph - 0.01 in   Overcast
3:54 PM 30.0 °F 26.5 °F 26.1 °F 85% 29.73 in 1.8 mi West 3.5 mph - 0.01 in Snow Light Snow
4:07 PM 30.2 °F 26.7 °F 26.6 °F 86% 29.71 in 2.0 mi West 3.5 mph - 0.00 in Snow Light Snow
4:16 PM 30.2 °F - 26.6 °F 86% 29.71 in 1.2 mi Calm Calm - 0.00 in Snow Light Snow
4:23 PM 30.2 °F - 26.6 °F 86% 29.71 in 0.8 mi Calm Calm - 0.00 in Snow Light Snow
4:37 PM 30.2 °F - 26.6 °F 86% 29.71 in 0.8 mi Calm Calm - 0.01 in Snow Light Snow
4:46 PM 28.4 °F - 26.6 °F 93% 29.70 in 0.8 mi Calm Calm - 0.02 in Snow Light Snow
4:54 PM 28.9 °F - 27.0 °F 92% 29.72 in 0.8 mi Calm Calm - 0.03 in Snow Light Snow
5:04 PM 28.4 °F - 26.6 °F 93% 29.70 in 1.0 mi Calm Calm - 0.00 in Snow Light Snow
5:09 PM 28.4 °F - 26.6 °F 93% 29.70 in 1.5 mi Calm Calm - 0.00 in Snow Light Snow
5:16 PM 28.4 °F - 26.6 °F 93% 29.69 in 2.0 mi Calm Calm - 0.00 in Snow Light Snow
5:38 PM 28.4 °F - 26.6 °F 93% 29.68 in 1.8 mi Calm Calm - 0.01 in Snow Light Snow
5:54 PM 28.9 °F - 27.0 °F 92% 29.70 in 1.2 mi Calm Calm - 0.01 in Snow Light Snow
6:01 PM 28.4 °F - 28.4 °F 100% 29.68 in 1.2 mi Calm Calm - 0.00 in Snow Light Snow
6:13 PM 28.4 °F - 26.6 °F 93% 29.68 in 1.5 mi Calm Calm - 0.00 in Snow Light Snow
6:24 PM 28.4 °F - 26.6 °F 93% 29.67 in 2.5 mi Calm Calm - 0.00 in Snow Light Snow
6:54 PM 28.0 °F - 27.0 °F 96% 29.68 in 2.5 mi Calm Calm - 0.01 in Snow Light Snow
7:12 PM 28.4 °F - 26.6 °F 93% 29.66 in 3.0 mi Calm Calm - 0.00 in Snow Light Snow
7:54 PM 28.9 °F - 27.0 °F 92% 29.66 in 2.5 mi Calm Calm - 0.00 in Snow Light Snow
8:15 PM 28.4 °F 24.6 °F 26.6 °F 93% 29.64 in 3.0 mi NNW 3.5 mph - 0.00 in Snow Light Snow
8:54 PM 28.9 °F 25.2 °F 27.0 °F 92% 29.65 in 4.0 mi NNW 3.5 mph - 0.00 in Snow Light Snow
9:07 PM 28.4 °F 24.6 °F 26.6 °F 93% 29.63 in 5.0 mi North 3.5 mph - 0.00 in   Overcast
9:54 PM 28.9 °F - 27.0 °F 92% 29.63 in 3.0 mi Calm Calm - 0.00 in Snow Light Snow
9:57 PM 28.4 °F - 26.6 °F 93% 29.62 in 2.5 mi Calm Calm - 0.00 in Snow Light Snow
10:08 PM 28.4 °F - 26.6 °F 93% 29.61 in 1.8 mi Calm Calm - 0.00 in Snow Light Snow
10:32 PM 28.4 °F 22.2 °F 26.6 °F 93% 29.61 in 2.0 mi NW 5.8 mph - 0.01 in Snow Light Snow
10:39 PM 28.4 °F 21.2 °F 26.6 °F 93% 29.61 in 2.0 mi NW 6.9 mph - 0.01 in Snow Light Snow
10:47 PM 28.4 °F 19.1 °F 26.6 °F 93% 29.61 in 2.5 mi NW 10.4 mph - 0.01 in Snow Light Snow
10:54 PM 28.9 °F 18.2 °F 27.0 °F 92% 29.62 in 3.0 mi NNW 13.8 mph - 0.01 in Snow Light Snow
11:08 PM 26.6 °F 13.8 °F 24.8 °F 93% 29.61 in 2.5 mi NNW 17.3 mph - 0.00 in Snow Light Snow
11:24 PM 26.6 °F 14.3 °F 24.8 °F 93% 29.61 in 1.5 mi NNW 16.1 mph - 0.00 in Snow Light Snow
11:31 PM 26.6 °F 13.8 °F 24.8 °F 93% 29.61 in 1.2 mi NNW 17.3 mph - 0.00 in Snow Light Snow
11:41 PM 26.6 °F 13.8 °F 23.0 °F 86% 29.61 in 0.8 mi NNW 17.3 mph - 0.00 in Snow Light Snow
11:54 PM 25.0 °F 12.2 °F 21.9 °F 88% 29.63 in 1.0 mi NW 16.1 mph - 0.00 in Snow Light Snow